Regional Weather Roundup
Issued by NWS Kansas City/Pleasant Hill, MO

Home | Current Version | Previous Version | Graphics & Text | Print | Product List | Glossary Off
Versions: 1 2 3 4 5 6 7 8 9 10 11 12 13 14 15 16 17 18 19 20 21 22 23 24 25 26 27 28 29 30 31 32 33 34 35 36 37 38 39 40 41 42 43 44 45 46 47 48 49 50

266
ASUS43 KEAX 171110
RWREAX

WEATHER ROUNDUP FOR EASTERN KANSAS AND NORTHWEST MISSOURI
NATIONAL WEATHER SERVICE KANSAS CITY/PLEASANT HILL MO
500 AM CST FRI NOV 17 2017

KSZ040-057-103>105-MOZ028-029-037-043-171200-
...KANSAS CITY METROPOLITAN AREA...

CITY           SKY/WX    TMP DP  RH WIND       PRES   REMARKS
K.C. INTL      CLOUDY    54  47  77 S18       29.80F
K.C. DOWNTOWN  CLOUDY    57  47  69 S12       29.82F
LEES SUMMIT    CLOUDY    55  48  77 S14       29.84F
OLATHE - IXD   CLOUDY    54  48  80 S12       29.82F
OLATHE - OJC   CLOUDY    53  48  83 S14       29.83S
LAWRENCE       CLOUDY    56  49  77 SE12      29.80F

$$

MOZ001>008-011>017-020>025-030>033-038>040-044>046-053-054-171200-
...NORTHERN AND CENTRAL MISSOURI...

CITY           SKY/WX    TMP DP  RH WIND       PRES   REMARKS
ST. JOSEPH     CLOUDY    52  43  71 S13       29.79F
MOSBY          CLOUDY    52  41  66 SE5       29.83F
WARRENSBURG    CLOUDY    50  41  71 SE10      29.87F
WHITEMAN AFB   MOCLDY    51  42  70 S10       29.84F
CLINTON        CLOUDY    55  46  71 MISG      29.90F
SEDALIA        CLOUDY    51  43  74 SE13      29.91F
WARSAW         NOT AVBL
CHILLICOTHE      N/A     47  36  65 SE9G17    29.88F
KIRKSVILLE     CLOUDY    40  35  83 SE13      29.93F WCI  32

$$

MOZ041-047>049-056>058-063>065-088>090-097-171200-
...EASTERN AND SOUTHERN MISSOURI...

CITY           SKY/WX    TMP DP  RH WIND       PRES   REMARKS
ST. LOUIS INTL CLOUDY    34  32  92 SE9       30.11R FOG     WCI  27
SPIRIT OF STL  CLOUDY    36  33  89 SE6       30.08S WCI  31
COLUMBIA       CLOUDY    44  36  73 SE14      29.96F
JEFFERSON CITY CLOUDY    45  36  70 E10       29.98F
ROLLA          CLOUDY    45  37  73 S15G23    30.00F
OSAGE BEACH    CLOUDY    49  41  74 SE9       29.97F
SPRINGFIELD    CLOUDY    51  44  77 SE20      29.95F
BRANSON        CLOUDY    50  45  81 SE12      30.01R
JOPLIN         CLOUDY    60  56  86 S17G25    29.89F
WEST PLAINS    CLOUDY    44  37  76 SE6       30.07F

$$

IAZ060-094-KSZ022-034>040-054-083-096-NEZ052-066-093-171200-
...KANSAS...SOUTHEAST NEBRASKA AND IOWA...

CITY           SKY/WX    TMP DP  RH WIND       PRES   REMARKS
TOPEKA         CLOUDY    57  52  83 SE14      29.77F
MANHATTAN      CLOUDY    59  55  87 S10       29.72F
EMPORIA        CLOUDY    54  53  97 S15       29.76F FOG
CHANUTE        CLOUDY    58  53  84 S15G24    29.84F
WICHITA        CLOUDY    59  58  96 S24G30    29.73F
OMAHA          CLOUDY    48  36  63 S13       29.71F
LINCOLN        CLOUDY    54  45  71 S12       29.68F
FALLS CITY     CLOUDY    54  46  74 S14       29.74F
LAMONI         CLOUDY    44  33  65 SE15G21   29.82F
DES MOINES     CLOUDY    43  32  65 SE14      29.84S

$$





USA.gov is the U.S. government's official web portal to all federal, state and local government web resources and services.